QPF
0.04 0.05 0.04 0.04 0.05 0.05 0.05 0.06 0.07 0.07 0.07 0.06 0.05 0.04 0.04 0.03 0.04 0.03 0.04 0.05 0.04 0.04 0.05 0.05 0.06 0.07 0.11 0.10 0.08 0.06 0.04 0.04 0.04 0.06 0.08 0.07 0.06 0.06
0.05 0.05 0.05 0.05 0.04 0.04 0.04 0.05 0.06 0.07 0.07 0.05 0.04 0.04 0.04 0.03 0.05 0.04 0.05 0.06 0.05 0.03 0.04 0.05 0.05 0.07 0.10 0.13 0.10 0.07 0.06 0.05 0.05 0.05 0.06 0.06 0.05 0.05
0.04 0.05 0.04 0.04 0.05 0.06 0.05 0.05 0.08 0.09 0.09 0.07 0.05 0.06 0.06 0.05 0.07 0.07 0.06 0.06 0.06 0.05 0.05 0.06 0.06 0.07 0.08 0.10 0.12 0.10 0.07 0.06 0.05 0.05 0.04 0.04 0.04 0.04
0.02 0.03 0.03 0.03 0.03 0.05 0.05 0.06 0.07 0.07 0.07 0.07 0.05 0.05 0.06 0.06 0.07 0.07 0.07 0.07 0.06 0.06 0.05 0.06 0.07 0.08 0.07 0.07 0.08 0.09 0.08 0.07 0.06 0.06 0.05 0.04 0.04 0.05
0.01 0.02 0.02 0.03 0.02 0.03 0.03 0.04 0.04 0.04 0.04 0.05 0.06 0.04 0.04 0.05 0.06 0.07 0.08 0.08 0.07 0.06 0.06 0.07 0.07 0.07 0.06 0.06 0.06 0.06 0.06 0.06 0.05 0.05 0.04 0.03 0.03 0.03
0.01 0.02 0.02 0.03 0.03 0.03 0.03 0.04 0.04 0.04 0.04 0.05 0.06 0.05 0.04 0.04 0.04 0.05 0.06 0.06 0.06 0.06 0.07 0.08 0.08 0.07 0.07 0.07 0.06 0.06 0.06 0.05 0.04 0.02 0.02 0.02 0.02 0.02
0.01 0.02 0.02 0.03 0.03 0.04 0.05 0.05 0.05 0.05 0.05 0.05 0.05 0.05 0.03 0.04 0.04 0.04 0.04 0.05 0.06 0.06 0.06 0.06 0.06 0.06 0.06 0.07 0.07 0.05 0.04 0.04 0.03 0.02 0.01 0.01 0.01 0.02
0.02 0.03 0.04 0.05 0.05 0.06 0.07 0.07 0.07 0.05 0.05 0.04 0.04 0.04 0.02 0.02 0.03 0.03 0.03 0.03 0.05 0.05 0.05 0.06 0.05 0.05 0.04 0.04 0.04 0.04 0.03 0.02 0.02 0.02 0.02 0.02 0.02 0.02
0.02 0.04 0.05 0.07 0.09 0.09 0.10 0.11 0.10 0.07 0.06 0.05 0.04 0.03 0.02 0.02 0.02 0.04 0.04 0.04 0.03 0.03 0.03 0.04 0.04 0.03 0.03 0.03 0.02 0.02 0.02 0.03 0.02 0.02 0.02 0.02 0.01 0.02
0.04 0.05 0.06 0.10 0.12 0.11 0.11 0.11 0.11 0.08 0.07 0.06 0.04 0.02 0.02 0.02 0.02 0.03 0.04 0.03 0.03 0.02 0.02 0.03 0.02 0.02 0.02 0.01 0.01 0.01 0.01 0.02 0.03 0.03 0.03 0.03 0.02 0.02
0.07 0.07 0.08 0.10 0.12 0.11 0.11 0.10 0.08 0.08 0.08 0.07 0.04 0.03 0.02 0.01 0.02 0.02 0.03 0.03 0.03 0.02 0.01 0.01 0.01 0.01 0.01 0.01 0.01 0.01 0.01 0.01 0.01 0.02 0.02 0.02 0.02 0.01
0.08 0.09 0.09 0.08 0.08 0.08 0.10 0.10 0.07 0.05 0.05 0.04 0.03 0.02 0.01 0.01 0.01 0.01 0.01 0.01 0.02 0.02 0.01 0.01 0.01 0.01 0.01 0.01 0.01 0.01 0.01 0.01 0.00 0.00 0.00 0.00 0.00 0.00
0.06 0.06 0.06 0.06 0.05 0.05 0.06 0.09 0.09 0.04 0.02 0.01 0.01 0.01 0.01 0.01 0.01 0.02 0.02 0.02 0.02 0.01 0.01 0.01 0.01 0.01 0.01 0.01 0.01 0.01 0.01 0.01 0.00 0.00 0.00 0.00 0.00 0.00
0.03 0.03 0.04 0.04 0.04 0.03 0.02 0.04 0.05 0.04 0.03 0.01 0.01 0.01 0.01 0.01 0.02 0.02 0.02 0.03 0.03 0.03 0.02 0.01 0.01 0.01 0.01 0.01 0.01 0.01 0.01 0.01 0.01 0.00 0.00 0.00 0.00 0.00
0.02 0.02 0.02 0.03 0.03 0.02 0.01 0.02 0.02 0.02 0.02 0.01 0.01 0.00 0.01 0.01 0.01 0.01 0.01 0.02 0.02 0.02 0.01 0.01 0.01 0.01 0.01 0.01 0.01 0.00 0.01 0.01 0.01 0.00 0.00 0.00 0.00 0.00
0.00 0.01 0.01 0.01 0.00 0.00 0.00 0.01 0.01 0.01 0.01 0.01 0.01 0.01 0.01 0.00 0.01 0.01 0.01 0.01 0.01 0.02 0.01 0.01 0.01 0.01 0.01 0.01 0.00 0.00 0.00 0.00 0.01 0.01 0.00 0.00 0.00 0.00
0.00 0.00 0.00 0.00 0.00 0.00 0.00 0.00 0.00 0.01 0.01 0.01 0.01 0.01 0.01 0.00 0.00 0.00 0.01 0.01 0.00 0.00 0.00 0.01 0.01 0.01 0.01 0.01 0.01 0.00 0.00 0.00 0.00 0.00 0.00 0.00 0.00 0.00
0.00 0.00 0.00 0.00 0.00 0.00 0.00 0.00 0.00 0.01 0.01 0.01 0.01 0.01 0.01 0.01 0.00 0.00 0.00 0.00 0.00 0.00 0.00 0.00 0.01 0.01 0.01 0.00 0.01 0.01 0.01 0.01 0.01 0.00 0.00 0.01 0.00 0.00
0.00 0.00 0.00 0.00 0.00 0.00 0.00 0.00 0.00 0.00 0.01 0.01 0.01 0.00 0.00 0.00 0.01 0.01 0.00 0.00 0.00 0.00 0.00 0.01 0.01 0.01 0.01 0.01 0.01 0.01 0.01 0.01 0.01 0.01 0.01 0.01 0.01 0.01
0.00 0.00 0.00 0.00 0.00 0.00 0.00 0.00 0.00 0.00 0.00 0.00 0.00 0.00 0.00 0.00 0.00 0.01 0.01 0.01 0.01 0.01 0.01 0.01 0.01 0.01 0.01 0.01 0.01 0.01 0.01 0.02 0.02 0.02 0.01 0.01 0.01 0.01
0.00 0.00 0.00 0.00 0.00 0.00 0.00 0.00 0.00 0.00 0.00 0.00 0.00 0.00 0.00 0.00 0.00 0.00 0.00 0.00 0.00 0.00 0.00 0.00 0.00 0.00 0.01 0.01 0.01 0.00 0.00 0.01 0.01 0.02 0.02 0.02 0.02 0.01
0.00 0.00 0.00 0.00 0.00 0.00 0.00 0.00 0.00 0.00 0.00 0.00 0.00 0.00 0.00 0.00 0.00 0.00 0.00 0.00 0.00 0.00 0.00 0.00 0.00 0.00 0.00 0.00 0.00 0.00 0.00 0.00 0.01 0.01 0.02 0.02 0.03 0.02
0.00 0.00 0.00 0.00 0.00 0.00 0.00 0.00 0.00 0.00 0.00 0.00 0.00 0.00 0.00 0.00 0.00 0.00 0.00 0.00 0.00 0.00 0.00 0.00 0.00 0.00 0.00 0.00 0.00 0.00 0.00 0.00 0.01 0.01 0.01 0.01 0.01 0.01
MSLP
1018.15 1018.23 1018.39 1018.60 1018.84 1019.08 1019.30 1019.50 1019.69 1019.87 1020.07 1020.31 1020.60 1020.96 1021.38 1021.85 1022.34 1022.84 1023.32 1023.76 1024.15 1024.50 1024.80 1025.07 1025.33 1025.58 1025.83 1026.09 1026.35 1026.62 1026.88 1027.13 1027.35 1027.55 1027.73 1027.87 1027.99 1028.08
1017.96 1018.00 1018.12 1018.30 1018.51 1018.74 1018.98 1019.22 1019.47 1019.73 1020.03 1020.38 1020.79 1021.24 1021.73 1022.25 1022.76 1023.25 1023.70 1024.10 1024.44 1024.74 1025.00 1025.25 1025.49 1025.73 1025.98 1026.25 1026.52 1026.78 1027.03 1027.26 1027.46 1027.63 1027.76 1027.87 1027.94 1027.99
1017.89 1017.89 1017.96 1018.09 1018.27 1018.47 1018.71 1018.97 1019.26 1019.60 1019.98 1020.42 1020.92 1021.45 1022.00 1022.56 1023.08 1023.56 1023.98 1024.33 1024.63 1024.88 1025.11 1025.33 1025.55 1025.79 1026.04 1026.31 1026.58 1026.83 1027.07 1027.27 1027.44 1027.57 1027.67 1027.74 1027.77 1027.78
1017.94 1017.90 1017.93 1018.01 1018.14 1018.31 1018.52 1018.78 1019.10 1019.48 1019.92 1020.43 1020.99 1021.58 1022.18 1022.75 1023.28 1023.74 1024.13 1024.44 1024.70 1024.91 1025.11 1025.30 1025.51 1025.73 1025.98 1026.24 1026.49 1026.73 1026.95 1027.12 1027.26 1027.36 1027.42 1027.46 1027.46 1027.44
1018.10 1018.02 1018.00 1018.02 1018.10 1018.22 1018.40 1018.64 1018.96 1019.36 1019.84 1020.39 1020.99 1021.62 1022.23 1022.82 1023.34 1023.78 1024.14 1024.42 1024.64 1024.81 1024.98 1025.15 1025.33 1025.54 1025.77 1026.01 1026.25 1026.47 1026.65 1026.80 1026.91 1026.97 1027.01 1027.01 1026.99 1026.95
1018.33 1018.21 1018.13 1018.10 1018.11 1018.18 1018.31 1018.53 1018.83 1019.22 1019.71 1020.27 1020.89 1021.54 1022.16 1022.75 1023.26 1023.68 1024.01 1024.27 1024.45 1024.60 1024.74 1024.88 1025.05 1025.23 1025.44 1025.66 1025.87 1026.05 1026.20 1026.31 1026.39 1026.43 1026.44 1026.42 1026.39 1026.35
1018.57 1018.40 1018.28 1018.19 1018.14 1018.15 1018.24 1018.41 1018.68 1019.06 1019.54 1020.10 1020.71 1021.35 1021.98 1022.55 1023.05 1023.46 1023.77 1024.00 1024.17 1024.30 1024.42 1024.54 1024.68 1024.84 1025.02 1025.20 1025.37 1025.52 1025.63 1025.71 1025.75 1025.76 1025.75 1025.73 1025.70 1025.66
1018.79 1018.59 1018.41 1018.26 1018.16 1018.12 1018.16 1018.29 1018.53 1018.88 1019.33 1019.88 1020.48 1021.11 1021.72 1022.28 1022.77 1023.16 1023.47 1023.69 1023.84 1023.96 1024.06 1024.16 1024.28 1024.41 1024.56 1024.70 1024.83 1024.94 1025.01 1025.05 1025.06 1025.04 1025.02 1024.98 1024.95 1024.91
1018.99 1018.75 1018.53 1018.34 1018.19 1018.11 1018.11 1018.20 1018.41 1018.73 1019.16 1019.68 1020.26 1020.86 1021.45 1022.00 1022.47 1022.86 1023.16 1023.37 1023.52 1023.63 1023.72 1023.81 1023.90 1024.00 1024.11 1024.22 1024.30 1024.36 1024.39 1024.39 1024.37 1024.32 1024.27 1024.23 1024.19 1024.15
1019.20 1018.92 1018.67 1018.45 1018.28 1018.17 1018.14 1018.21 1018.39 1018.69 1019.09 1019.57 1020.12 1020.70 1021.26 1021.79 1022.24 1022.62 1022.91 1023.12 1023.26 1023.37 1023.45 1023.51 1023.59 1023.66 1023.73 1023.79 1023.83 1023.84 1023.83 1023.79 1023.72 1023.65 1023.57 1023.51 1023.45 1023.40
1019.45 1019.16 1018.90 1018.67 1018.48 1018.37 1018.33 1018.39 1018.55 1018.82 1019.18 1019.63 1020.14 1020.68 1021.20 1021.70 1022.12 1022.48 1022.75 1022.95 1023.09 1023.19 1023.25 1023.30 1023.34 1023.38 1023.41 1023.43 1023.42 1023.39 1023.33 1023.24 1023.14 1023.03 1022.92 1022.83 1022.74 1022.67
1019.79 1019.51 1019.25 1019.03 1018.85 1018.75 1018.71 1018.76 1018.91 1019.15 1019.48 1019.89 1020.34 1020.83 1021.30 1021.75 1022.13 1022.45 1022.70 1022.88 1023.00 1023.07 1023.12 1023.15 1023.16 1023.16 1023.15 1023.13 1023.07 1022.99 1022.89 1022.76 1022.61 1022.46 1022.31 1022.18 1022.06 1021.95
1020.24 1019.97 1019.74 1019.54 1019.39 1019.30 1019.28 1019.33 1019.46 1019.67 1019.96 1020.31 1020.70 1021.12 1021.53 1021.91 1022.24 1022.51 1022.72 1022.86 1022.95 1023.00 1023.02 1023.01 1022.99 1022.96 1022.91 1022.84 1022.75 1022.62 1022.47 1022.29 1022.10 1021.91 1021.72 1021.54 1021.37 1021.22
1020.76 1020.53 1020.34 1020.18 1020.06 1019.99 1019.98 1020.03 1020.14 1020.31 1020.55 1020.83 1021.15 1021.49 1021.82 1022.12 1022.38 1022.59 1022.75 1022.85 1022.90 1022.91 1022.90 1022.86 1022.81 1022.74 1022.65 1022.54 1022.40 1022.23 1022.03 1021.81 1021.58 1021.34 1021.10 1020.87 1020.65 1020.46
1021.33 1021.14 1020.98 1020.86 1020.77 1020.72 1020.71 1020.74 1020.83 1020.96 1021.13 1021.35 1021.59 1021.84 1022.08 1022.31 1022.49 1022.64 1022.73 1022.79 1022.79 1022.77 1022.72 1022.65 1022.56 1022.45 1022.32 1022.17 1021.99 1021.78 1021.54 1021.28 1021.00 1020.71 1020.43 1020.15 1019.88 1019.64
1021.86 1021.71 1021.58 1021.49 1021.41 1021.37 1021.35 1021.37 1021.41 1021.49 1021.61 1021.75 1021.91 1022.09 1022.25 1022.40 1022.51 1022.59 1022.64 1022.64 1022.61 1022.54 1022.46 1022.35 1022.23 1022.09 1021.93 1021.74 1021.52 1021.27 1020.99 1020.68 1020.36 1020.03 1019.69 1019.37 1019.06 1018.77
1022.29 1022.16 1022.06 1021.97 1021.90 1021.85 1021.81 1021.80 1021.80 1021.83 1021.89 1021.97 1022.07 1022.17 1022.27 1022.35 1022.41 1022.44 1022.44 1022.40 1022.33 1022.24 1022.12 1021.99 1021.83 1021.66 1021.46 1021.24 1020.98 1020.69 1020.37 1020.03 1019.66 1019.28 1018.90 1018.53 1018.18 1017.85
1022.58 1022.46 1022.35 1022.26 1022.17 1022.09 1022.03 1021.98 1021.95 1021.94 1021.95 1021.98 1022.03 1022.08 1022.14 1022.18 1022.20 1022.19 1022.15 1022.09 1021.99 1021.87 1021.72 1021.56 1021.38 1021.17 1020.94 1020.68 1020.39 1020.06 1019.70 1019.31 1018.90 1018.48 1018.06 1017.65 1017.26 1016.90
1022.73 1022.59 1022.47 1022.34 1022.23 1022.12 1022.02 1021.93 1021.87 1021.83 1021.81 1021.81 1021.83 1021.86 1021.89 1021.90 1021.90 1021.87 1021.81 1021.72 1021.60 1021.45 1021.28 1021.09 1020.87 1020.63 1020.37 1020.07 1019.74 1019.37 1018.98 1018.55 1018.10 1017.64 1017.18 1016.73 1016.31 1015.91
1022.76 1022.59 1022.43 1022.27 1022.12 1021.97 1021.84 1021.72 1021.63 1021.56 1021.53 1021.52 1021.53 1021.55 1021.57 1021.57 1021.56 1021.51 1021.43 1021.32 1021.18 1021.00 1020.80 1020.57 1020.32 1020.04 1019.74 1019.40 1019.03 1018.63 1018.19 1017.72 1017.24 1016.74 1016.25 1015.77 1015.32 1014.90
1022.70 1022.50 1022.30 1022.10 1021.91 1021.72 1021.56 1021.42 1021.31 1021.23 1021.19 1021.17 1021.18 1021.20 1021.22 1021.22 1021.19 1021.13 1021.03 1020.89 1020.71 1020.50 1020.26 1019.99 1019.69 1019.37 1019.02 1018.64 1018.23 1017.79 1017.32 1016.82 1016.31 1015.79 1015.27 1014.77 1014.29 1013.84
1022.60 1022.36 1022.13 1021.89 1021.65 1021.44 1021.24 1021.08 1020.96 1020.88 1020.83 1020.82 1020.83 1020.84 1020.85 1020.84 1020.79 1020.70 1020.57 1020.39 1020.17 1019.91 1019.62 1019.30 1018.95 1018.58 1018.19 1017.77 1017.33 1016.85 1016.35 1015.83 1015.29 1014.75 1014.22 1013.70 1013.21 1012.75
1022.46 1022.20 1021.93 1021.66 1021.39 1021.15 1020.93 1020.75 1020.62 1020.53 1020.48 1020.46 1020.46 1020.46 1020.45 1020.41 1020.33 1020.20 1020.02 1019.79 1019.52 1019.20 1018.85 1018.47 1018.08 1017.66 1017.23 1016.77 1016.29 1015.80 1015.28 1014.74 1014.19 1013.64 1013.10 1012.58 1012.08 1011.61
Thickness
5596 5596 5596 5596 5597 5597 5597 5597 5597 5595 5593 5593 5594 5596 5598 5599 5600 5600 5600 5600 5600 5599 5598 5597 5597 5596 5595 5593 5591 5590 5588 5587 5585 5583 5581 5580 5578 5576
5587 5588 5588 5589 5589 5589 5589 5589 5590 5589 5587 5585 5586 5587 5588 5590 5590 5591 5590 5590 5590 5590 5589 5588 5587 5587 5585 5584 5582 5581 5579 5577 5576 5574 5572 5571 5569 5567
5579 5579 5580 5580 5581 5581 5581 5581 5581 5581 5580 5578 5577 5578 5579 5580 5580 5581 5581 5580 5580 5580 5580 5579 5578 5577 5576 5574 5573 5572 5571 5569 5568 5566 5564 5562 5561 5559
5570 5571 5571 5571 5571 5572 5573 5573 5573 5573 5572 5571 5570 5570 5570 5570 5571 5571 5571 5572 5571 5572 5571 5571 5570 5568 5567 5566 5565 5564 5563 5562 5560 5558 5557 5555 5553 5551
5561 5562 5562 5563 5563 5563 5564 5565 5565 5565 5564 5564 5562 5561 5561 5562 5562 5562 5562 5562 5563 5563 5563 5562 5561 5560 5559 5558 5557 5556 5555 5554 5553 5551 5549 5548 5546 5544
5553 5554 5554 5555 5555 5556 5557 5557 5557 5557 5557 5556 5555 5554 5553 5553 5554 5554 5553 5553 5554 5554 5554 5553 5553 5552 5551 5550 5550 5549 5548 5547 5546 5545 5543 5542 5540 5539
5546 5547 5548 5549 5549 5550 5551 5551 5551 5551 5550 5549 5548 5548 5547 5547 5547 5546 5546 5545 5545 5545 5545 5545 5545 5545 5545 5544 5543 5543 5542 5541 5540 5539 5538 5537 5535 5534
5538 5539 5541 5542 5543 5544 5545 5546 5546 5546 5545 5544 5543 5543 5542 5542 5541 5540 5539 5540 5539 5538 5538 5539 5539 5539 5539 5539 5538 5538 5537 5537 5536 5535 5533 5532 5531 5530
5530 5532 5534 5535 5536 5538 5539 5540 5540 5540 5541 5540 5539 5539 5538 5538 5537 5536 5535 5534 5534 5533 5533 5534 5533 5533 5534 5534 5534 5534 5533 5533 5532 5531 5529 5528 5527 5526
5524 5525 5526 5528 5530 5531 5533 5533 5534 5534 5535 5536 5536 5535 5534 5533 5533 5532 5531 5529 5529 5529 5528 5530 5530 5530 5530 5530 5531 5531 5531 5530 5529 5528 5527 5526 5525 5523
5519 5520 5521 5523 5523 5525 5527 5528 5528 5528 5530 5531 5531 5531 5531 5530 5530 5529 5528 5528 5528 5528 5526 5526 5527 5527 5527 5528 5529 5529 5528 5528 5527 5526 5525 5524 5523 5521
5515 5516 5517 5518 5519 5521 5522 5524 5524 5524 5525 5527 5527 5528 5528 5528 5528 5527 5527 5527 5526 5526 5525 5523 5524 5524 5526 5526 5526 5526 5526 5526 5526 5525 5523 5522 5521 5518
5511 5512 5513 5515 5516 5517 5518 5519 5520 5521 5522 5523 5524 5525 5526 5526 5526 5526 5525 5525 5525 5526 5524 5522 5522 5521 5521 5523 5523 5524 5523 5524 5523 5523 5522 5521 5519 5516
5510 5510 5511 5513 5514 5516 5517 5517 5519 5520 5520 5521 5522 5523 5524 5525 5525 5525 5524 5524 5523 5524 5523 5521 5521 5520 5520 5520 5521 5522 5522 5521 5521 5521 5520 5519 5518 5516
5510 5511 5512 5514 5515 5516 5517 5517 5518 5518 5519 5519 5520 5521 5522 5522 5523 5524 5524 5524 5524 5524 5523 5522 5520 5519 5518 5519 5519 5519 5520 5521 5520 5519 5518 5517 5516 5515
5512 5513 5514 5515 5516 5516 5517 5518 5518 5518 5518 5519 5520 5521 5522 5523 5523 5524 5524 5524 5524 5524 5524 5522 5521 5519 5518 5518 5517 5518 5518 5518 5519 5517 5516 5515 5514 5514
5514 5515 5516 5517 5518 5519 5519 5519 5520 5520 5520 5521 5522 5523 5523 5524 5524 5523 5523 5522 5523 5523 5523 5523 5521 5519 5518 5517 5517 5518 5518 5517 5516 5515 5513 5514 5515 5514
5516 5517 5517 5518 5519 5519 5520 5521 5522 5523 5523 5523 5524 5524 5524 5525 5525 5524 5523 5522 5522 5523 5522 5522 5520 5520 5520 5519 5516 5516 5517 5516 5515 5513 5511 5511 5514 5515
5520 5520 5520 5521 5522 5522 5523 5523 5524 5525 5525 5525 5526 5526 5526 5525 5525 5525 5525 5524 5523 5523 5522 5520 5519 5518 5519 5521 5522 5516 5514 5515 5513 5512 5511 5509 5510 5512
5524 5525 5525 5526 5526 5527 5527 5528 5528 5528 5528 5528 5528 5528 5527 5527 5526 5526 5525 5524 5523 5522 5522 5521 5518 5516 5515 5516 5518 5517 5514 5512 5511 5511 5511 5509 5508 5508
5531 5530 5530 5531 5531 5531 5531 5531 5531 5532 5531 5531 5531 5530 5530 5529 5528 5527 5526 5524 5522 5522 5521 5521 5520 5516 5513 5511 5513 5516 5516 5513 5509 5507 5506 5505 5506 5506
5536 5536 5537 5537 5536 5536 5536 5536 5536 5536 5535 5534 5534 5533 5532 5531 5530 5529 5528 5526 5525 5523 5522 5521 5519 5516 5513 5512 5514 5515 5514 5513 5509 5506 5502 5500 5498 5500
5543 5543 5543 5543 5543 5542 5542 5541 5541 5540 5539 5539 5538 5537 5535 5534 5532 5530 5528 5527 5525 5524 5523 5522 5520 5517 5515 5513 5511 5511 5510 5509 5507 5506 5504 5500 5495 5493